Welcome to the New NWS' Forecast!
Most changes are behind the scenes, but click here for differences you might notice.

Regional Weather Roundup (RWR)

Issued by National Weather Service (NWS)

                            
000
ASUS46 KSEW 161510
RWRWA 

WASHINGTON REGIONAL WEATHER ROUNDUP
NATIONAL WEATHER SERVICE SEATTLE WA
700 AM PST FRI NOV 16 2018

NOTE:"FAIR" INDICATES FEW OR NO CLOUDS BELOW 12,000 FEET WITH NO 
SIGNIFICANT WEATHER AND/OR OBSTRUCTIONS TO VISIBILITY.

WAZ507-509-555>559-161600-
SEATTLE, TACOMA, EVERETT, AND VICINITY
  
CITY           SKY/WX    TMP DP  RH WIND       PRES   REMARKS
EVERETT        FOG       49  49 100 NW5       30.22S VSB 1/4          
BOEING FIELD   CLOUDY    52  50  93 NW6       30.22R                  
RENTON         CLOUDY    53  50  89 NW5       30.21S FOG              
SEATAC AIRPORT LGT RAIN  51  50  96 NW6       30.21S VSB 1/4          
JBLM-MCCHORD   FOG       50  50 100 CALM      30.21S VSB 7/8          
PUYALLUP       CLOUDY    52  52 100 CALM      30.21S FOG              
BREMERTON      CLOUDY    50  48  93 NE12      30.22R                  
JBLM-FT LEWIS  CLOUDY    51  51 100 CALM      30.20S FOG              
TACOMA NARROWS CLOUDY    50  50 100 NW3       30.22R FOG              
$$
 
WAZ001-503-506-510-514-515-161600-
NORTH INTERIOR
  
CITY           SKY/WX    TMP DP  RH WIND       PRES   REMARKS
BELLINGHAM     CLOUDY    52  48  86 CALM      30.23R FOG              
FRIDAY HARBOR  CLOUDY    49  45  86 NW3       30.24S                  
EASTSOUND      CLOUDY    50  48  93 NW7       30.23S                  
PORT ANGELES   CLOUDY    49  48  97 E6        30.24F FOG              
EDIZ HOOK      CLOUDY    49  49  99 S6        30.24F                  
PORT TOWNSEND  CLOUDY    50  50 100 W6        30.23R                  
NAS WHIDBEY    CLOUDY    52  47  83 N6        30.27S                  
ARLINGTON      CLOUDY    50  49  96 CALM      30.23R FOG              
BURLINGTON     CLOUDY    50  50 100 CALM      30.23S                  
$$
 
WAZ020-022-039-040-504-511-512-161600-
SOUTHWEST INTERIOR
  
CITY           SKY/WX    TMP DP  RH WIND       PRES   REMARKS
SHELTON        CLOUDY    50  48  93 CALM      30.20R                  
OLYMPIA        CLOUDY    50  49  96 CALM      30.21S FOG              
CHEHALIS       DRIZZLE   50  50 100 SW5       30.21F                  
KELSO          CLOUDY    47  46  97 SE7       30.23F                  
VANCOUVER      CLOUDY    46  44  93 CALM      30.23S                  
SCAPPOOSE, OR  CLOUDY    47  45  93 CALM      30.23S FOG              
PORTLAND, OR   CLOUDY    46  44  93 CALM      30.24S                  
$$
 
WAZ021-516-517-161600-
WASHINGTON COAST
  
CITY           SKY/WX    TMP DP  RH WIND       PRES   REMARKS
FORKS          FOG       43  42  97 CALM      30.21S VSB 3/4          
HOQUIAM        FOG       53  53 100 SW6       30.20F VSB 1            
ASTORIA, OR    CLOUDY    49  49 100 E3        30.22S FOG              
$$
 
WAZ019-023-024-040-567>569-161600-
CASCADE MOUNTAINS AND COLUMBIA GORGE
  
CITY           SKY/WX    TMP DP  RH WIND       PRES   REMARKS
STAMPEDE PASS  FOG       42  40  92 VRB3      30.16R VSB 1            
TROUTDALE, OR  CLOUDY    44  41  89 CALM      30.23F                  
HOOD RIVER, OR MOSUNNY   43  39  87 SW5       30.16S                  
THE DALLES, OR PTCLDY    42  38  85 S5        30.15R                  
$$

WAZ026-027-041>044-520-521-161600-
EAST SLOPES
  
CITY           SKY/WX    TMP DP  RH WIND       PRES   REMARKS
OMAK           CLEAR     38  35  89 N16       30.23R                  
WENATCHEE      CLOUDY    39  36  89 CALM      30.20R                  
ELLENSBURG     MOCLDY    43  37  79 E6        30.16R                  
YAKIMA         CLOUDY    34  31  88 CALM      30.18R FOG              
SUNNYSIDE ARPT CLOUDY    36  34  93 CALM      30.20  FOG              
YAKIMA TC      PTSUNNY   47  38  71 E10       30.15R FOG              
$$

WAZ028-034-035-161600-
COLUMBIA BASIN
  
CITY           SKY/WX    TMP DP  RH WIND       PRES   REMARKS
EPHRATA        MOCLDY    40  34  79 NW13      30.19R                  
MOSES LAKE     CLOUDY    38  34  85 N3        30.20R                  
PASCO          CLOUDY    39  36  89 NW5       30.21R FOG              
RICHLAND ARPT  CLOUDY    40  37  90 CALM      30.21  FOG              
HERMISTON, OR  CLOUDY    35  33  92 S5        30.18R                  
$$

WAZ036>038-161600-
NORTHEAST WASHINGTON
  
CITY           SKY/WX    TMP DP  RH WIND       PRES   REMARKS
SPOKANE GEIGER FOG       34  33  96 CALM      30.15R VSB 1/4          
SPOKANE FELTS  FOG       36  35  96 VRB3      30.16R VSB 1            
FAIRCHILD AFB  CLOUDY    35  35 100 CALM      30.14R FOG              
COEURDALENE,ID CLOUDY    38  37  97 S5        30.13R FOG              
DEER PARK      MOCLDY    32  31  96 NE3       30.15R FOG              
$$

WAZ029>033-161600-
SOUTHEAST WASHINGTON
  
CITY           SKY/WX    TMP DP  RH WIND       PRES   REMARKS
PULLMAN        CLOUDY    42  38  85 CALM      30.15R                  
LEWISTON, ID   LGT RAIN  42  38  85 CALM      30.16R                  
WALLA WALLA    CLOUDY    47  38  71 S5        30.16R                  
PENDLETON, OR  CLOUDY    45  36  70 CALM      30.16R                  
$$